+ View the NASA Portal
+ Center for Near-Earth Object Studies
IMPORTANT:
The SSD Announcement email list is now available. Major changes are coming in the near future, including possible hostname and/or URL changes. To be notified of such changes, subscribe to this email list.
Please visit
this page
for more details.
Don't show this message again
JPL Small-Body Database Browser
Search:
[
help
]
344583 (2003 BS66)
Classification:
Main-belt Asteroid
SPK-ID:
2344583
[
Ephemeris
|
Orbit Diagram
|
Orbital Elements
|
Mission Design
|
Physical Parameters
|
Discovery Circumstances
]
[ show orbit diagram ]
Orbital Elements at Epoch 2458600.5 (2019-Apr-27.0) TDB
Reference:
JPL 17
(heliocentric ecliptic J2000)
Element
Value
Uncertainty (1-sigma)
Units
e
.1985048622830519
6.4429e-08
a
2.334274590203727
1.8379e-08
au
q
1.870909734144509
1.437e-07
au
i
3.680158380273663
4.6077e-06
deg
node
161.5179739902539
9.001e-05
deg
peri
30.89758734317196
9.1129e-05
deg
M
163.0406221138823
1.8471e-05
deg
t
p
2458010.543943840273
(2017-Sep-14.04394384)
6.1552e-05
TDB
period
1302.645791360839
3.57
1.5385e-05
4.212e-08
d
yr
n
.2763606211201263
3.264e-09
deg/d
Q
2.797639446262945
2.2028e-08
au
Orbit Determination Parameters
# obs. used (total)
196
data-arc span
8656 days (23.70 yr)
first obs. used
1996-03-17
last obs. used
2019-11-28
planetary ephem.
DE431
SB-pert. ephem.
SB431-N16
condition code
0
norm. resid. RMS
.65239
source
ORB
producer
Otto Matic
solution date
2019-Dec-04 22:57:09
Additional Information
Earth MOID
= .872344 au
Jupiter MOID
= 2.15864 au
T_jup
= 3.539
[ show covariance matrix ]
[
Ephemeris
|
Orbit Diagram
|
Orbital Elements
|
Mission Design
|
Physical Parameters
|
Discovery Circumstances
]
Physical Parameter Table
Parameter
Symbol
Value
Units
Sigma
Reference
Notes
absolute magnitude
H
17.2
n/a
MPO455508
344583 (2003 BS66)
Discovered 2003-Jan-30 by LONEOS at Anderson Mesa
Reference:
20121128/Numbers.arc
Last Updated:
2012-12-03
[
Ephemeris
|
Orbit Diagram
|
Orbital Elements
|
Mission Design
|
Physical Parameters
|
Discovery Circumstances
]
2019-Dec-13 03:14 UT
(server date/time)
Site Manager:
Ryan S. Park
Webmaster
:
Alan B. Chamberlin